Regional Weather Roundup
Issued by NWS

Home | Current Version | Previous Version | Text Only | Print | Product List | Glossary On
Versions: 1 2 3 4 5 6 7 8 9 10 11 12 13 14 15 16 17 18 19 20 21 22 23 24 25 26 27 28 29 30 31 32 33 34 35 36 37 38 39 40 41 42 43 44 45 46 47 48 49 50
000
ASUS42 KFFC 311103
RWRGA
WEATHER ROUNDUP FOR GEORGIA
NATIONAL WEATHER SERVICE PEACHTREE CITY GA
700 AM EDT TUE MAR 31 2015

NOTE: "FAIR" INDICATES FEW OR NO CLOUDS BELOW 12,000 FEET WITH NO
SIGNIFICANT WEATHER AND/OR OBSTRUCTIONS TO VISIBILITY.

* = USE WITH CAUTION. THE STATIONS MARKED WITH AN ASTERISK MAY NOT
REPORT WEATHER SUCH AS PRECIPITATION, FOG, OR THUNDER AND ARE NOT
QUALITY CONTROLLED BY NWS.

THE REMARK "TC" DENOTES TEMPERATURE READING IN DEGREES CELSIUS.

GAZ001>058-311200-
NORTH GEORGIA

CITY           SKY/WX    TMP DP  RH WIND       PRES   REMARKS
ATLANTA        CLEAR     48  40  73 SW3       30.06S
ATHENS         CLEAR     40  38  93 CALM      30.05S
CHAMBLEE       CLEAR     42  40  92 CALM      30.06R
PEACHTREE CITY CLEAR     40  38  93 CALM      30.08R
ROME           CLEAR     38  37  97 CALM      30.05S
WEST ATLANTA   CLEAR     41  39  93 CALM      30.07R
GAINESVILLE    CLEAR     44  37  76 W7        30.06S
CARTERSVILLE   CLEAR     38  36  92 CALM      30.07S


CITY           SKY/WX    TMP DP  RH WIND       PRES   REMARKS
DALTON*        PTCLDY    36  36 100 CALM      30.06R
LAWRENCEVILLE* CLEAR     41  37  87 CALM      30.05
MARIETTA       PTCLDY    43  42  95 CALM      30.05S
KENNESAW*      CLEAR     43  39  87 CALM      30.07
$$

GAZ059>098-102>109-311200-
CENTRAL GEORGIA

CITY           SKY/WX    TMP DP  RH WIND       PRES   REMARKS
AUGUSTA-BUSH   CLEAR     38  37  97 CALM      30.06S
AUGUSTA-DANIEL CLEAR     52  39  61 CALM      30.06R
COLUMBUS       CLOUDY    50  49  96 CALM      30.08R
MACON          CLEAR     41  41 100 CALM      30.09R FOG
ROBINS AFB     CLEAR     43  43  99 CALM      30.08S


CITY           SKY/WX    TMP DP  RH WIND       PRES   REMARKS
LAGRANGE*      PTCLDY    45  45  98 CALM      30.08R
SYLVANIA*        N/A     46  46 100 CALM      30.09R FOG
MILLEDGEVILLE* CLEAR     43  43 100 CALM      30.07S FOG
$$

GAZ099>101-110>166-311200-
SOUTH GEORGIA

CITY           SKY/WX    TMP DP  RH WIND       PRES   REMARKS
SAVANNAH       FOG       48  47  96 CALM      30.09R VSB 1/4
VALDOSTA       FOG       60  60 100 CALM      30.10R VSB 1/4
ALMA           FOG       57  57 100 CALM      30.10R VSB 1/4
ST SIMONS      FAIR      56  56 100 W5        30.10R
FT STEWART     FOG       49  48  96 CALM      30.07R VSB 1/4
ALBANY         FOG       61  60  97 SW5       30.11R VSB 1/4
HUNTER AFB     FOG       49  49 100 W2        30.07R VSB 1/2
MOODY AFB      FOG       59  58  97 SW2       30.08S VSB 1/4
BRUNSWICK      MOCLDY    57  55  94 W5        30.11R


CITY           SKY/WX    TMP DP  RH WIND       PRES   REMARKS
BAINBRIDGE*    CLOUDY    63  63 100 SW5       30.09R FOG
MOULTRIE*      FOG       57 N/A N/A CALM      30.10S VSB 1/4
VIDALIA*       CLEAR     48  48 100 CALM      30.09R
WAYCROSS*      FOG       61  61 100 CALM      30.10R VSB 1/4
DOUGLAS*       FOG       59  59 100 CALM      30.11S VSB 1/4
$$



USA.gov is the U.S. government's official web portal to all federal, state and local government web resources and services.